Helicity
166 269 297 143 191 224 229 234 192 162 137 146 103 108 112 95 91 41 45 56 77 79 49 69 73 77 133 196 286 299 361 357 388 371 307 249 223 181 143 134 133 141 147 168
246 240 121 153 183 194 201 196 168 146 85 115 104 81 62 70 113 96 29 15 49 106 104 60 58 66 102 225 258 361 418 415 423 381 279 253 237 170 152 138 135 133 133 150
202 143 134 145 151 187 181 220 178 141 89 78 83 104 37 41 77 72 40 -7 10 46 118 77 72 65 82 211 293 356 418 488 478 380 357 288 304 245 194 152 129 119 137 160
121 119 106 131 177 156 188 106 105 112 110 148 107 96 49 46 45 44 52 54 -35 1 76 70 28 44 136 179 289 350 439 466 451 387 357 296 291 260 174 151 139 147 151 149
177 176 168 189 184 134 176 119 104 119 122 118 157 124 2 91 36 51 117 96 27 36 60 71 59 43 94 284 315 459 547 494 419 398 338 293 269 241 200 189 161 127 106 115
163 118 162 155 112 100 62 74 79 106 112 137 184 142 38 36 46 101 74 10 29 30 69 121 144 177 225 342 448 608 624 521 438 381 308 268 228 218 219 191 188 161 138 129
217 196 146 173 184 185 213 179 175 138 198 175 45 117 113 35 -92 -37 105 38 21 67 105 111 126 152 226 372 455 582 599 533 421 364 287 239 219 195 176 190 215 183 161 164
171 207 224 230 196 169 138 169 187 173 184 140 142 151 151 112 44 67 213 233 106 97 59 113 172 214 266 395 539 567 539 498 434 369 306 258 225 200 197 197 189 146 134 134
212 130 153 319 244 160 189 248 202 204 149 154 149 213 189 232 202 233 230 279 251 111 32 98 206 279 399 455 441 516 475 417 358 298 269 259 216 210 209 191 151 124 103 73
178 205 174 216 200 237 200 125 217 253 298 247 278 212 222 293 270 290 389 340 353 300 144 111 177 251 325 335 317 323 336 286 262 246 225 218 181 180 186 170 154 130 106 94
79 115 155 146 189 76 51 137 227 332 422 475 443 485 403 412 457 406 334 345 343 345 247 155 137 190 212 239 222 202 272 248 221 200 202 208 217 205 182 173 153 132 119 108
71 77 78 41 22 25 69 282 329 443 504 473 539 579 261 376 284 259 364 363 394 364 239 209 95 127 181 187 154 146 213 198 191 139 170 203 210 212 188 163 139 118 100 103
67 173 124 118 186 208 197 198 303 320 319 324 393 495 225 272 263 265 224 342 248 297 179 303 79 114 167 134 126 134 171 151 154 148 173 172 163 151 143 135 115 100 86 81
64 83 163 195 177 116 146 138 165 228 219 220 250 176 191 148 143 171 20 17 119 166 271 292 71 109 151 124 116 148 131 128 127 125 139 137 131 127 109 92 79 73 57 31
83 108 129 118 98 117 122 103 77 105 135 161 87 109 38 40 139 156 92 53 -66 55 192 293 323 88 108 96 121 107 129 128 119 113 110 115 107 98 82 63 49 43 24 14
130 150 140 131 130 97 40 34 99 89 93 107 140 -36 58 25 3 34 78 58 -23 -99 206 197 244 114 101 66 104 103 119 99 87 90 97 98 94 80 71 51 59 60 40 20
76 103 117 127 59 16 44 9 21 48 57 71 53 -14 29 -2 -13 -27 23 22 -52 -53 -263 76 203 243 71 46 68 96 107 102 101 93 94 96 85 77 62 68 108 83 74 65
80 97 84 91 67 80 -3 43 33 20 15 25 16 1 -0 8 35 9 -1 -11 -49 -43 -103 -59 25 283 259 23 84 107 92 102 104 83 103 86 81 72 67 95 106 77 76 111
143 170 111 111 109 42 2 62 -8 3 71 13 -26 28 -4 19 -19 32 34 -13 -77 -84 -96 -41 90 357 326 45 122 135 91 74 98 85 88 81 71 74 84 107 84 42 70 89
120 177 233 145 112 36 39 32 -4 45 14 -5 6 273 125 1 -21 18 -29 -84 -104 -94 -70 -20 108 184 262 70 96 129 96 60 70 78 87 72 76 82 92 97 73 31 73 92
99 150 208 104 88 13 38 1 -45 -3 -26 31 125 172 30 43 24 19 -46 -77 -92 -60 -62 49 115 281 190 70 66 109 84 47 57 115 102 89 91 100 100 91 93 89 108 123
126 152 235 230 106 12 52 -16 -17 -4 -33 -24 193 77 -1 10 105 93 70 42 -9 -11 33 50 92 120 132 83 101 106 85 65 83 121 101 96 95 105 99 125 97 106 119 119
109 130 165 258 65 34 13 -11 -5 -5 -21 13 75 120 -6 -48 -14 21 50 43 3 -48 34 -5 124 49 96 72 97 120 114 88 90 127 102 95 98 101 97 120 100 114 101 88
119 105 216 228 23 28 24 3 -17 -18 -14 8 31 24 17 -16 -18 -2 13 28 27 22 51 -10 127 68 47 103 91 139 109 107 102 119 101 98 107 107 115 119 94 70 22 37
158 153 192 187 -8 -1 21 20 -1 -0 12 21 44 14 19 23 -25 -29 13 31 26 9 40 12 15 72 52 65 90 135 119 118 109 116 106 96 100 105 109 88 46 5 13 36
176 132 217 158 57 46 29 38 47 -5 21 31 32 70 48 20 -1 -28 -3 19 37 24 12 25 49 76 84 41 160 110 92 111 112 116 111 99 98 108 114 101 92 66 35 68
Wind_Speed
40 48 54 51 48 53 58 67 73 66 63 67 66 69 74 78 79 76 73 76 74 67 66 63 56 52 42 35 25 22 24 20 15 13 11 13 14 20 23 18 15 17 18 18
51 58 48 46 49 53 58 66 68 65 49 55 71 76 79 78 79 82 85 81 75 69 59 61 65 59 48 31 31 25 25 25 20 16 14 17 13 21 19 20 20 21 24 26
53 49 45 49 52 58 57 60 60 62 58 55 64 75 85 66 65 72 71 66 59 61 56 50 58 65 51 33 33 30 28 26 21 17 12 15 18 23 24 24 25 26 26 25
48 45 45 49 57 48 65 45 46 53 58 69 47 81 82 77 69 69 70 66 59 53 41 44 50 57 59 37 32 34 30 27 21 18 15 15 20 26 28 23 24 23 26 26
49 53 57 62 51 48 52 41 43 48 55 61 52 62 75 57 86 80 71 56 43 39 38 34 35 44 46 39 36 34 30 26 21 18 17 16 20 22 21 21 20 22 23 21
49 43 47 46 46 43 50 49 50 51 56 67 52 58 97 61 59 66 57 41 33 32 42 37 35 35 36 37 35 33 28 25 19 17 18 16 18 19 20 20 19 23 24 20
55 51 40 50 52 46 54 54 64 63 54 57 48 45 65 72 71 64 65 47 37 39 39 37 34 28 27 26 35 30 27 23 20 16 17 20 22 21 20 18 18 20 20 17
64 65 50 52 46 50 48 46 51 66 66 68 65 57 57 56 57 57 57 56 52 54 41 40 37 30 21 6 15 26 28 27 25 21 21 22 20 19 16 13 12 15 17 14
62 55 42 49 48 43 50 48 54 60 75 75 76 66 52 61 60 62 60 57 57 56 47 40 30 23 15 5 2 19 25 28 28 25 21 20 16 12 13 13 15 17 17 14
43 58 45 46 43 41 49 58 59 57 69 75 75 78 69 64 66 66 65 65 63 58 52 41 28 22 17 13 7 12 24 27 27 27 24 19 15 14 12 12 15 17 17 15
40 43 51 53 49 64 67 64 57 67 72 80 83 73 52 60 62 63 66 66 62 58 56 53 35 28 24 25 17 13 28 28 31 29 25 19 14 11 11 14 15 16 17 17
42 45 65 67 55 53 53 59 59 71 76 79 82 81 47 54 62 70 71 73 72 63 61 64 36 29 32 33 30 24 28 30 23 18 13 12 11 12 12 15 17 19 19 23
39 48 71 75 48 50 54 59 65 63 62 72 80 72 55 80 76 74 74 74 71 62 63 63 41 31 29 35 34 29 18 22 15 14 8 10 11 11 15 19 20 22 23 24
36 44 52 70 71 68 76 73 65 61 71 72 72 93 98 90 84 77 62 68 62 60 58 63 63 40 25 23 29 23 21 22 16 15 14 13 14 14 15 18 20 21 25 23
43 54 52 58 66 69 70 70 67 64 63 69 80 86 98 95 92 86 74 66 64 71 71 62 61 50 26 17 22 25 23 27 23 18 16 15 12 12 13 15 17 21 23 22
49 60 56 67 61 62 69 71 63 59 64 69 82 107 88 92 91 88 86 77 73 67 73 63 61 54 23 11 14 25 29 27 24 19 17 13 9 9 10 12 16 20 18 17
47 50 56 63 57 60 59 44 47 51 54 64 85 89 88 93 93 85 82 80 77 68 68 71 67 59 31 13 17 25 25 26 26 21 15 13 9 8 8 11 15 17 14 15
40 44 44 57 55 53 45 48 50 57 69 70 72 75 79 84 88 85 81 77 69 65 64 62 61 50 43 34 22 26 25 20 27 22 16 15 12 9 6 9 15 16 12 14
26 32 49 50 51 48 49 43 64 65 67 53 58 67 71 73 69 74 66 66 62 56 58 56 53 48 49 51 23 24 28 23 24 23 19 17 14 8 3 9 15 18 14 17
29 25 32 37 47 47 41 56 63 61 47 63 62 56 55 44 54 55 53 61 57 49 47 52 51 50 37 30 20 22 26 25 24 22 17 16 15 9 3 10 17 16 16 19
41 39 27 24 39 39 35 53 56 45 56 57 48 44 39 34 41 42 41 50 50 41 40 42 54 48 41 24 15 20 24 26 23 17 14 16 15 11 7 9 13 14 16 20
36 46 37 28 28 41 22 51 53 55 47 50 41 38 36 29 28 26 29 36 37 36 39 40 49 47 38 13 14 16 22 23 21 18 14 16 15 14 10 11 11 10 14 16
41 35 42 23 18 22 49 57 53 50 47 37 43 41 36 28 26 29 34 33 31 30 32 34 40 33 25 15 11 13 20 21 21 20 16 17 16 15 13 13 16 14 12 12
38 35 39 34 24 24 55 58 53 50 47 49 47 45 40 34 31 30 31 33 33 32 34 31 32 30 24 19 8 14 16 20 21 22 17 18 17 16 16 12 10 17 13 7
32 37 39 35 23 30 47 55 57 56 55 53 48 48 47 48 41 36 35 35 34 33 35 34 30 26 27 30 22 18 14 17 22 24 19 21 21 18 18 17 9 13 3 6
21 27 29 28 12 16 50 60 60 58 58 55 50 48 41 43 41 36 38 38 39 37 36 35 31 28 28 28 27 16 17 17 27 25 24 25 24 24 20 16 14 14 5 3
Wind_Direction
321 312 308 307 307 308 309 307 306 308 310 306 303 301 300 299 298 297 296 293 291 294 290 284 285 284 282 260 240 220 208 212 219 233 246 276 283 293 303 310 317 322 327 329
315 308 309 313 311 309 308 307 306 309 312 309 306 299 299 299 296 293 291 291 294 297 296 287 278 278 277 261 228 216 205 199 205 219 251 282 284 298 302 309 315 320 322 325
310 317 328 316 312 309 306 307 306 306 313 310 310 302 299 305 305 301 296 296 300 302 303 297 280 273 276 262 223 208 202 195 203 212 243 287 294 300 300 303 309 314 320 323
319 329 320 318 317 308 305 306 306 310 313 308 309 304 298 303 303 300 295 304 306 310 311 298 289 278 270 262 228 210 209 200 206 204 232 248 275 286 296 304 312 318 323 322
319 324 324 320 325 328 318 323 313 313 310 310 303 304 298 307 295 289 299 313 320 320 322 317 310 289 280 261 239 228 222 215 216 222 241 262 280 293 303 310 318 323 326 328
321 329 327 322 327 330 325 319 315 310 306 297 299 299 273 304 306 298 314 332 341 334 306 322 323 308 286 274 249 230 217 223 223 235 258 270 281 291 300 307 316 326 330 333
323 328 331 335 320 325 324 316 310 305 299 295 306 293 287 293 307 310 304 305 320 322 320 321 333 336 310 279 251 230 217 226 236 247 267 280 288 292 298 304 313 325 331 338
316 312 327 332 333 324 325 318 302 299 298 298 299 294 293 304 314 312 309 311 308 305 317 315 319 324 326 336 230 235 233 240 252 264 278 289 293 298 309 317 326 334 338 346
317 313 321 334 340 332 321 314 314 302 295 294 289 290 296 304 301 311 306 310 307 302 310 313 320 327 336 328 178 236 244 254 262 271 282 290 292 304 311 322 329 335 343 358
322 313 317 326 337 337 328 316 308 302 297 290 288 286 290 295 294 299 299 306 303 298 305 308 324 325 316 304 276 263 263 265 268 273 279 283 288 302 318 329 332 342 356 14
326 316 311 320 327 317 316 312 309 301 291 287 288 288 294 296 297 297 296 297 304 297 296 297 304 304 300 287 286 282 267 271 270 270 270 273 288 312 328 335 340 351 2 14
324 319 308 311 323 321 314 321 316 298 293 287 286 283 294 306 300 297 297 296 296 291 289 285 299 292 285 278 277 282 270 266 265 259 253 267 286 304 321 328 337 342 353 343
325 320 312 312 328 330 323 321 320 308 299 290 284 284 286 293 296 294 293 295 288 289 293 294 287 277 280 273 274 276 268 254 245 244 247 265 284 305 313 320 330 343 344 340
330 320 316 310 313 317 314 313 311 305 296 294 288 288 277 282 287 287 288 276 287 287 295 287 278 263 271 282 273 260 252 242 242 250 258 268 286 301 311 324 335 355 339 357
325 316 317 316 316 318 315 314 309 301 296 291 292 288 273 276 275 275 281 286 287 279 276 286 293 252 267 273 266 246 241 239 246 256 257 269 287 304 321 335 359 5 344 358
325 319 322 319 322 322 318 314 312 307 303 296 289 261 283 272 272 271 271 273 279 280 275 282 284 264 258 238 235 233 234 240 242 249 257 267 282 303 320 341 7 8 354 16
330 330 329 326 334 332 327 335 331 323 317 306 283 265 270 264 260 262 264 260 260 270 264 265 274 267 251 217 213 226 232 234 237 246 256 258 266 284 309 353 16 21 1 13
344 338 336 331 336 330 346 341 332 325 311 307 291 277 271 261 255 257 254 245 249 252 255 260 260 259 252 235 219 225 227 230 234 243 244 244 254 265 296 19 39 33 20 31
353 343 333 333 334 328 336 351 335 324 302 324 303 290 280 268 255 249 247 236 237 256 265 270 269 261 259 230 212 217 226 232 232 238 233 238 242 244 261 60 61 60 54 59
2 346 341 336 332 330 344 335 323 307 320 318 292 287 285 264 236 240 247 230 235 253 264 265 254 263 249 224 199 211 224 230 233 229 224 231 229 222 181 93 80 72 68 73
351 347 334 327 327 331 344 334 309 327 313 307 303 299 318 278 259 259 241 234 231 253 273 271 254 253 255 236 182 202 220 229 228 215 212 219 219 212 177 118 95 86 80 79
347 343 346 346 328 322 353 329 327 295 276 303 286 298 299 294 279 274 270 251 250 257 265 254 254 251 257 165 170 187 218 222 219 206 205 213 207 210 189 132 106 97 93 86
341 347 349 349 339 335 323 295 280 280 275 246 275 282 283 296 277 280 274 266 260 261 260 269 271 243 249 216 175 173 212 210 212 205 204 205 205 204 188 139 115 101 97 90
342 352 342 343 332 330 296 280 287 288 288 289 277 286 274 278 286 289 281 268 270 272 266 274 276 255 243 238 216 222 199 206 207 205 199 201 198 198 193 187 137 109 103 100
343 353 349 339 320 326 296 286 284 286 283 284 279 287 274 263 278 282 275 275 281 278 267 267 286 257 247 238 238 228 199 201 209 208 200 203 205 198 197 206 163 115 165 124
358 356 347 346 354 331 297 275 279 289 285 281 282 291 289 278 276 277 279 278 277 272 266 269 278 279 264 248 235 231 201 199 208 207 206 207 207 207 201 196 204 230 106 183